sat.trackr.live / text

‹ back to catalog

STARLINK-32757

NORAD 62492 · 2025-003F

PAYLOAD ACTIVE UNKNOWN

§ Identity

Operator
Country
US
Launch date
2025-01-06
Launch site
AFETR
Launch vehicle
Mass (kg)
RCS (m²)

Purposes: comms

External: N2YO · Heavens-Above · Gunter

§ Orbital elements

Epoch: 2026-05-25T05:17:43.255392Z

Period
94.27 min
Inclination
43.0001°
Eccentricity
0.0001122
Mean motion
15.27584425 rev/d
Perigee alt
482.3 km
Apogee alt
483.8 km
Semi-major
6,861.2 km
B*
3.5206e-4
RAAN
216.9626°
Arg perigee
281.1915°
Mean anomaly
78.8810°
Rev number
7,825

§ Raw data

STARLINK-327571 62492U 25003F   26145.22063953  .00009440  00000+0  35206-3 0  99962 62492  43.0001 216.9626 0001122 281.1915  78.8810 15.27584425 78255

JSON: /api/v1/satellites/62492 · /tle

For live sub-satellite position, see the globe view (requires WebGL).

§ Visibility from observer

Set your observer location to see the next 7 days of passes ≥ 10°. The values pass through the URL so the page stays shareable.

No JS? Fill the form by hand. The geolocation button needs JavaScript.